Location: Sternwarte_Laufen
(47.9344°N, 12.9346°E)
Time: 09:38:17
(UTC+02:00)

ISS - Pass Details

Date: 20 May 2018
Orbit: 402 x 407 km, 51.6° (Epoch: 27 May)

Event Time Altitude Azimuth Distance (km) Brightness Sun altitude
Exits shadow 01:38:39 16° 291° (WNW) 1,136 -1.5 -21.7°
Maximum altitude 01:40:55 41° 357° (N) 597 -2.5 -21.7°
Drops below altitude 10° 01:44:03 10° 70° (ENE) 1,459 -0.7 -21.6°
Sets 01:46:12 0° 78° (ENE) 2,319 0.3 -21.5°
